Home > Weather > Stuhr > Past weeks

Flag for Germany Weather for the Past 2 Weeks in Stuhr, Lower Saxony, Germany

Now
64 °F

Clear.


Feels Like: 64 °F
Forecast: 56 / 74 °F
Wind: 10 mph from Southeast

Location: Bremen Airport

Current Time: May 6, 2016 at 10:48:29 PM

Latest Report: May 6, 2016 at 10:20 PM


Visibility: 10 mi

Pressure: 29.95 "Hg

Humidity: 40%

Dew Point: 39 °F

Location of StuhrLocation

Historic Weather in Stuhr — Graph

°F

Stuhr Temperature Yesterday

Maximum temperature yesterday: 64 °F (at 3:50 PM)
Minimum temperature yesterday: 37 °F (at 3:50 AM)
Average temperature yesterday: 53 °F

High & Low Weather Summary for the Past Weeks

 TemperatureHumidityPressure
High73 °F (May 6, 2:50 PM)100% (Apr 22, 2:50 AM)30.42 "Hg (Apr 22, 2:50 AM)
Low28 °F (Apr 25, 2:20 AM)31% (May 5, 1:20 PM)29.36 "Hg (Apr 26, 12:20 PM)
Average45 °F75%29.99 "Hg
* Reported Apr 21 9:20 PM — May 6 9:20 PM, Stuhr, Weather by CustomWeather, © 2016

Note: Actual official high and low records may vary slightly from our data, if they occured in-between our weather recording intervals... More about our weather records

Advertising

Stuhr Weather History for the Previous 24 Hours

Scroll right to see more
 ConditionsComfort  
Time TempWeatherWind HumidityBarometerVisibility
9:20 PM
Fri, May 6
64 °FSunny.8 mph49%29.95 "Hg10 mi
8:50 PM68 °FSunny.8 mph40%29.95 "Hg10 mi
8:20 PM70 °FSunny.10 mph35%29.92 "Hg10 mi
7:50 PM72 °FSunny.12 mph36%29.92 "Hg10 mi
7:20 PM73 °FSunny.12 mph33%29.92 "Hg10 mi
6:50 PM73 °FPassing clouds.13 mph33%29.95 "HgN/A
6:20 PM73 °FPassing clouds.14 mph33%29.95 "HgN/A
5:50 PM73 °FSunny.15 mph38%29.95 "Hg10 mi
5:20 PM73 °FSunny.17 mph38%29.95 "Hg10 mi
4:50 PM73 °FSunny.16 mph36%29.95 "Hg10 mi
4:20 PM73 °FSunny.17 mph33%29.98 "Hg10 mi
3:50 PM73 °FSunny.21 mph33%29.98 "Hg10 mi
3:20 PM73 °FSunny.17 mph33%29.98 "Hg10 mi
2:50 PM73 °FPassing clouds.17 mph33%29.98 "HgN/A
2:20 PM72 °FPassing clouds.18 mph38%30.01 "HgN/A
1:50 PM72 °FSunny.18 mph41%30.01 "Hg10 mi
1:20 PM70 °FMild.15 mph43%30.04 "HgN/A
12:50 PM70 °FSunny.16 mph50%30.04 "Hg10 mi
12:20 PM68 °FPassing clouds.14 mph49%30.04 "HgN/A
11:50 AM68 °FPassing clouds.10 mph56%30.07 "HgN/A
11:20 AM64 °FPassing clouds.12 mph56%30.07 "HgN/A
10:50 AM64 °FPassing clouds.10 mph60%30.07 "HgN/A
10:20 AM63 °FPassing clouds.10 mph59%30.07 "HgN/A
9:50 AM61 °FSunny.10 mph63%30.09 "Hg10 mi
9:20 AM59 °FPassing clouds.10 mph68%30.09 "HgN/A
8:50 AM57 °FSunny.10 mph67%30.09 "Hg10 mi
8:20 AM55 °FPassing clouds.10 mph67%30.09 "HgN/A
7:50 AM54 °FSunny.9 mph72%30.12 "Hg10 mi
7:20 AM52 °FSunny.9 mph72%30.12 "Hg10 mi
6:50 AM50 °FSunny.7 mph76%30.12 "Hg10 mi
6:20 AM50 °FClear.8 mph71%30.12 "Hg10 mi
5:50 AM48 °FClear.7 mph76%30.12 "Hg10 mi
5:20 AM46 °FClear.6 mph76%30.12 "Hg10 mi
4:50 AM48 °FClear.5 mph76%30.12 "Hg10 mi
4:20 AM46 °FClear.7 mph76%30.12 "Hg10 mi
3:50 AM46 °FClear.8 mph76%30.15 "Hg10 mi
3:20 AM46 °FClear.7 mph76%30.15 "Hg10 mi
2:50 AM48 °FClear.8 mph71%30.15 "Hg10 mi
2:20 AM48 °FClear.8 mph71%30.15 "Hg10 mi
1:50 AM50 °FClear.8 mph67%30.15 "Hg10 mi
1:20 AM50 °FClear.8 mph67%30.15 "Hg10 mi
12:50 AM52 °FClear.7 mph62%30.15 "Hg10 mi
12:20 AM52 °FClear.8 mph62%30.18 "Hg10 mi
11:50 PM
Thu, May 5
54 °FClear.8 mph58%30.18 "Hg10 mi
11:20 PM54 °FClear.9 mph63%30.18 "Hg10 mi
10:50 PM52 °FClear.9 mph62%30.18 "Hg10 mi
10:20 PM57 °FClear.7 mph51%30.18 "Hg10 mi
Weather by CustomWeather, © 2016

See weather overviewHow to use our weather pages